K0VXP-1 Weather Reports


time (UTC)temp
C
wind
direction
speed
KPH
gust
KPH
rain 1hr
cm
rain 24hr
cm
rain mn
cm
humidity
%
barometer
mb
20240527194523 18 263 17.7 33.8 0.00 0.00 0.00 28 1027.1
20240527193022 18 243 14.5 24.1 0.00 0.00 0.00 30 1027.0
20240527191519 18 275 16.1 32.2 0.00 0.00 0.00 29 1027.1
20240527190016 18 281 11.3 27.4 0.00 0.00 0.00 32 1027.2
20240527184517 17 278 12.9 22.5 0.00 0.00 0.00 36 1027.6
20240527183016 17 287 12.9 19.3 0.00 0.00 0.00 36 1027.7
20240527181515 16 195 9.7 20.9 0.00 0.00 0.00 38 1027.7
20240527180013 16 157 3.2 16.1 0.00 0.00 0.00 39 1027.7
20240527174515 16 177 4.8 16.1 0.00 0.00 0.00 38 1027.8
20240527173017 15 240 1.6 16.1 0.00 0.00 0.00 40 1028.0
20240527171517 15 338 6.4 16.1 0.00 0.00 0.00 41 1028.0
20240527170018 15 270 3.2 8.0 0.00 0.00 0.00 42 1028.1
20240527164520 15 317 6.4 14.5 0.00 0.00 0.00 43 1028.0
20240527163027 14 18 6.4 16.1 0.00 0.00 0.00 43 1028.0
20240527161515 13 0 1.6 8.0 0.00 0.00 0.00 47 1028.0
20240527160016 12 232 3.2 9.7 0.00 0.00 0.00 53 1028.0
20240527154517 12 224 3.2 9.7 0.00 0.00 0.00 57 1028.1
20240527153017 11 232 3.2 11.3 0.00 0.00 0.00 60 1028.0
20240527151519 10 232 4.8 11.3 0.00 0.00 0.00 60 1027.8
20240527150015 10 261 3.2 9.7 0.00 0.00 0.00 60 1027.8
20240527144513 10 252 4.8 8.0 0.00 0.00 0.00 57 1027.8
20240527143015 9 323 1.6 4.8 0.00 0.00 0.00 59 1027.6
20240527141519 8 350 3.2 8.0 0.00 0.00 0.00 62 1027.7
20240527140017 7 328 3.2 6.4 0.00 0.00 0.00 63 1027.4
20240527134517 7 270 3.2 6.4 0.00 0.00 0.00 64 1027.3
20240527133014 7 280 0.0 4.8 0.00 0.00 0.00 63 1027.3
20240527131518 6 42 4.8 8.0 0.00 0.00 0.00 65 1027.1
20240527130018 6 63 4.8 8.0 0.00 0.00 0.00 68 1027.1
20240527124518 4 76 0.0 8.0 0.00 0.00 0.00 72 1027.0
20240527123017 3 78 6.4 11.3 0.00 0.00 0.00 73 1026.7
20240527121514 2 76 4.8 9.7 0.00 0.00 0.00 73 1026.6
20240527120018 2 72 6.4 11.3 0.00 0.00 0.00 73 1026.3
20240527114517 2 71 4.8 11.3 0.00 0.00 0.00 73 1026.2
20240527113014 3 76 4.8 6.4 0.00 0.00 0.00 72 1026.1
20240527111527 3 42 1.6 6.4 0.00 0.00 0.00 72 1025.9
20240527110013 3 46 4.8 8.0 0.00 0.00 0.00 73 1025.7
20240527104515 3 51 4.8 8.0 0.00 0.00 0.00 73 1025.7
20240527103016 2 47 6.4 8.0 0.00 0.00 0.00 73 1025.5
20240527101520 3 44 6.4 9.7 0.00 0.00 0.00 69 1025.5
20240527100024 4 33 3.2 4.8 0.00 0.00 0.00 67 1025.4
20240527094513 4 33 3.2 6.4 0.00 0.00 0.00 69 1025.5
20240527093012 4 318 3.2 4.8 0.00 0.00 0.00 68 1025.4
20240527091515 4 91 0.0 3.2 0.00 0.00 0.00 68 1025.4
20240527090013 5 0 0.0 6.4 0.00 0.00 0.00 68 1025.4
20240527084515 5 67 3.2 8.0 0.00 0.00 0.00 68 1025.4
20240527083013 5 80 6.4 12.9 0.00 0.00 0.00 68 1025.4
20240527081515 5 80 6.4 11.3 0.00 0.00 0.00 69 1025.2
20240527080017 5 74 6.4 9.7 0.00 0.00 0.00 67 1025.2
20240527074513 5 78 6.4 11.3 0.00 0.00 0.00 67 1025.2
20240527073014 5 83 6.4 12.9 0.00 0.00 0.00 68 1025.2
20240527071515 5 71 8.0 12.9 0.00 0.00 0.00 68 1025.2
20240527070016 5 65 8.0 12.9 0.00 0.00 0.00 66 1025.0
20240527064517 5 78 6.4 12.9 0.00 0.00 0.00 67 1025.2
20240527063017 5 73 8.0 12.9 0.00 0.00 0.00 67 1025.2
20240527061536 5 83 8.0 11.3 0.00 0.00 0.00 67 1025.2
20240527060017 5 75 8.0 14.5 0.00 0.00 0.00 66 1025.1
20240527054513 5 83 8.0 12.9 0.00 0.03 0.00 66 1025.2
20240527053015 5 103 9.7 12.9 0.00 0.03 0.00 66 1025.0
20240527051537 5 94 8.0 12.9 0.00 0.03 0.00 66 1025.0
20240527050013 5 87 8.0 12.9 0.00 0.03 0.00 66 1025.1
20240527044513 5 86 8.0 12.9 0.00 0.03 0.00 65 1024.9
20240527043016 6 73 8.0 12.9 0.00 0.03 0.00 64 1025.0
20240527041513 7 108 8.0 12.9 0.00 0.03 0.00 61 1024.8
20240527040018 8 91 4.8 11.3 0.00 0.03 0.00 56 1024.9
20240527034517 8 138 3.2 6.4 0.00 0.10 0.00 54 1024.7
20240527033016 8 200 1.6 4.8 0.00 0.10 0.00 54 1024.6
20240527031515 9 256 1.6 6.4 0.00 0.10 0.00 53 1024.2
20240527030019 9 240 4.8 9.7 0.00 0.10 0.00 52 1024.0
20240527024517 10 252 4.8 9.7 0.00 0.15 0.00 52 1023.8
20240527023016 10 251 6.4 16.1 0.00 0.15 0.00 51 1023.7
20240527021513 11 246 6.4 11.3 0.00 0.15 0.00 51 1023.5
20240527020016 11 229 8.0 14.5 0.00 0.15 0.00 50 1023.4
20240527014515 12 262 6.4 12.9 0.00 0.36 0.00 50 1023.4
20240527013032 12 248 3.2 14.5 0.00 0.36 0.00 50 1023.2
20240527011521 13 250 6.4 17.7 0.00 0.36 0.00 47 1022.9
20240527010016 13 243 9.7 14.5 0.00 0.36 0.00 47 1022.9
20240527004514 13 259 9.7 17.7 0.00 0.36 0.00 47 1022.7
20240527003015 13 258 8.0 14.5 0.00 0.36 0.00 46 1022.6
20240527001518 13 248 11.3 17.7 0.00 0.36 0.00 46 1022.7
20240527000018 14 255 9.7 19.3 0.00 0.36 0.00 44 1022.5
20240526234513 14 236 9.7 16.1 0.00 0.43 0.00 44 1022.6
20240526233020 15 281 4.8 19.3 0.00 0.43 0.00 42 1022.5
20240526231513 15 267 11.3 20.9 0.00 0.43 0.00 45 1022.5
20240526230018 15 294 9.7 20.9 0.00 0.43 0.00 44 1022.4
20240526224515 14 210 8.0 16.1 0.00 0.43 0.00 44 1022.4
20240526223015 13 182 3.2 11.3 0.00 0.43 0.00 48 1022.5
20240526221513 13 224 6.4 12.9 0.00 0.43 0.00 48 1022.4
20240526220016 12 265 6.4 16.1 0.00 0.43 0.00 48 1022.4
20240526214514 13 249 6.4 14.5 0.00 0.43 0.00 49 1022.5
20240526213019 12 257 9.7 17.7 0.00 0.43 0.00 48 1022.4
20240526211516 12 238 6.4 20.9 0.00 0.43 0.00 48 1022.3
20240526210019 13 230 12.9 24.1 0.00 0.43 0.00 49 1022.4
20240526204513 13 254 9.7 25.7 0.00 0.46 0.00 48 1022.5
20240526203014 12 239 4.8 20.9 0.00 0.46 0.00 50 1022.5
20240526201513 12 274 9.7 27.4 0.00 0.46 0.00 50 1022.7
20240526200012 12 294 6.4 19.3 0.00 0.46 0.00 51 1022.7